Weather Service Report


629 
ASUS45 KPSR 170410
RWRAZ 

ARIZONA HOURLY REGIONAL WEATHER ROUNDUP
NATIONAL WEATHER SERVICE PHOENIX AZ
900 PM MST MON JAN 16 2017

NOTE: FAIR INDICATES FEW OR NO CLOUDS BELOW 12,000 FEET WITH NO
SIGNIFICANT WEATHER AND/OR OBSTRUCTIONS TO VISIBILITY.

AZZ001>003-036-170500-
NORTHWEST ARIZONA
  
CITY           SKY/WX    TMP DP  RH WIND       PRES   REMARKS
KINGMAN        CLEAR     37  22  54 E12       30.09R WCI  29          
$$

AZZ004>008-015-016-018-170500-
NORTH CENTRAL ARIZONA
  
CITY           SKY/WX    TMP DP  RH WIND       PRES   REMARKS
GRAND CANYON   CLEAR     27  26  96 CALM      30.09R                  
WILLIAMS       CLOUDY    30  28  93 S3        30.08R                  
PRESCOTT       PTCLDY    36  36 100 S5        30.06R WCI  32          
FLAGSTAFF      PTCLDY    30  29  96 CALM      30.07R                  
PAYSON         CLOUDY    39  37  93 CALM      30.09R                  
PAGE           CLEAR     39  28  64 W3        30.08R                  
$$

AZZ009>014-017-170500-
NORTHEAST ARIZONA
  
CITY           SKY/WX    TMP DP  RH WIND       PRES   REMARKS
WINSLOW        CLOUDY    38  35  89 W6        30.06R WCI  33          
SAINT JOHNS    CLOUDY    37  34  89 CALM      30.05R                  
SHOW LOW       CLOUDY    32  32 100 SW5       30.08R WCI  27          
$$

AZZ023-170500-
GREATER PHOENIX AREA
  
CITY           SKY/WX    TMP DP  RH WIND       PRES   REMARKS
PHOENIX        PTCLDY    54  42  64 VRB3      30.02R                  
BUCKEYE        CLEAR     50  34  53 NW7       30.04S                  
LUKE AFB       CLEAR     50  45  81 NW5       30.02R                  
DEER VALLEY    CLEAR     52  43  71 N3        30.03R                  
SCOTTSDALE     CLEAR     53  42  66 NE3       30.04R                  
MESA-GATEWAY   CLEAR     50  46  87 E5        30.04R                  
$$

AZZ027-028-170500-
SOUTHWEST MARICOPA COUNTY AND PINAL COUNTY
  
CITY           SKY/WX    TMP DP  RH WIND       PRES   REMARKS
CASA GRANDE    NOT AVBL                                               
$$

AZZ503-504-507>509-170500-
SOUTHEAST ARIZONA
  
CITY           SKY/WX    TMP DP  RH WIND       PRES   REMARKS
TUCSON         CLEAR     48  43  82 SW3       30.05R                  
DAVIS-MONTHAN  CLEAR     48  44  84 S3        30.04R                  
NOGALES        CLOUDY    48  38  68 N9        30.03R                  
SIERRA VISTA   MOCLDY    44  37  77 CALM      30.06R                  
DOUGLAS        PTCLDY    40  36  86 N7        30.03R                  
SAFFORD        CLEAR     45  41  86 CALM      30.03R                  
$$

AZZ020-021-025-026-031-170500-
SOUTHWEST ARIZONA
  
CITY           SKY/WX    TMP DP  RH WIND       PRES   REMARKS
YUMA           CLEAR     58  29  33 N7        30.05R                  
$$

CAZ031-033-041-043-047-048-061-170500-
SOUTHERN CALIFORNIA
  
CITY           SKY/WX    TMP DP  RH WIND       PRES   REMARKS
DOWNTOWN L.A.  CLEAR     56  52  86 CALM      30.04S                  
L.A. AIRPORT   CLEAR     57  52  83 S5        30.04S                  
SAN DIEGO      PTCLDY    58  50  75 CALM      30.06S                  
BURBANK        CLEAR     54  47  77 SW7       30.04R                  
ONTARIO        CLEAR     53  45  74 CALM      30.05R                  
RIVERSIDE      CLEAR     54  17  23 N8        30.04R                  
PALM SPRINGS   CLEAR     55  35  47 NW7       30.09R                  
EL CENTRO NAS  CLEAR     52  43  71 NE7       30.08R                  
IMPERIAL       PTCLDY    56  44  64 CALM      30.06R                  
BLYTHE         CLEAR     52  33  48 N7        30.07R                  
NEEDLES        CLEAR     53  25  33 W9        30.08R                  
$$

NVZ020-UTZ003-170500-
SOUTHERN NEVADA-UTAH
  
CITY           SKY/WX    TMP DP  RH WIND       PRES   REMARKS
LAS VEGAS      CLEAR     50  18  28 NE8       30.10R                  
SALT LAKE CITY PTCLDY    24  19  81 NW7       30.30R WCI  16          
$$

NMZ009-TXZ055-170500-
NEW MEXICO-WEST TEXAS
  
CITY           SKY/WX    TMP DP  RH WIND       PRES   REMARKS
ALBUQUERQUE    LGT RAIN  42  39  89 SE8       30.09R                  
EL PASO        MOCLDY    48  38  68 E6        30.04S                  
$$


........................KEY........................
SKY/WX - SKY CONDITION/WEATHER
TMP    - TEMPERATURE IN FAHRENHEIT
DP     - DEW POINT IN FAHRENHEIT
RH     - RELATIVE HUMIDITY IN PERCENT
WIND   - DIRECTION AND SPEED IN MILES PER HOUR (MPH)
VRB    - VARIABLE WIND DIRECTION
PRES   - MEAN SEA LEVEL PRESSURE IN INCHES OF MERCURY
         F - FALLING PRESSURE   R - RISING PRESSURE
         S - STEADY PRESSURE
VSB    - VISIBILITY IN MILES
HX     - HEAT INDEX IN FAHRENHEIT
WCI    - WIND CHILL INDEX IN FAHRENHEIT
TC     - TEMPERATURE IN CELSIUS WHICH IS ALSO KNOWN AS
         TEMPERATURE IN CENTIGRADE
AFB    - AIR FORCE BASE
         LUKE AFB IS LUKE AIR FORCE BASE
         DAVIS-MONTHAN IS DAVIS-MONTHAN AIR FORCE BASE
NAS    - NAVAL AIR STATION
         EL CENTRO NAS IS EL CENTRO NAVAL AIR STATION
N/A    - NOT AVAILABLE

  

Return to Home page


Western Regional Climate Center, wrcc@dri.edu